Weather History for Newport News, VA

Change the Weather History Date:

Sunday, February 24, 2013

  Actual Average Record
Temperature  
Mean Temperature 50 °F -  
Max Temperature 57 °F 55 °F 78 °F (2012)
Min Temperature 39 °F 35 °F 25 °F (2009)
Degree Days  
Heating Degree Days 16    
Moisture  
Dew Point 38 °F    
Average Humidity 70    
Maximum Humidity 87    
Minimum Humidity 46    
Precipitation  
Precipitation 0.00 in - - ()
Sea Level Pressure  
Sea Level Pressure 29.87 in    
Wind  
Wind Speed 6 mph (NW)    
Max Wind Speed 16 mph    
Max Gust Speed 28 mph    
Visibility 7 miles    
Events Rain    
Averages and records for this station are not official NWS values.
T = Trace of Precipitation, MM = Missing Value Source: NWS Daily Summary

Daily Weather History Graph

Daily Weather History Graph

Search for Another Location

Airport:

Trip Planner

Search our weather history database for the weather conditions in past years. The results will help you decide how hot, cold, wet, or windy it might be!

Date:

Astronomy

Feb. 24, 2013 Rise Set
Actual Time 6:43 AM EST 5:55 PM EST
Civil Twilight 6:17 AM EST 6:21 PM EST
Nautical Twilight 5:46 AM EST 6:51 PM EST
Astronomical Twilight 5:16 AM EST 7:22 PM EST
Moon 5:04 PM EST (2/24) 5:38 AM EST (2/24)
Length of Visible Light 12h 04m
Length of Day
11h 12m
Waxing Gibbous, 99% of the Moon is Illuminated
Feb 24
Waxing Gibbous
Feb 25
Full
Mar 4
Last Quarter
Mar 11
New
Mar 19
First Quarter

Hourly Weather History & Observations

Time (EST) Temp. Windchill Dew Point Humidity Pressure Visibility Wind Dir Wind Speed Gust Speed Precip Events Conditions
12:54 AM 44.1 °F 41.5 °F 39.9 °F 85% 29.81 in 4.0 mi WNW 4.6 mph - N/A   Overcast
1:54 AM 44.1 °F - 39.9 °F 85% 29.81 in 4.0 mi North - - N/A   Overcast
2:54 AM 45.0 °F - 39.9 °F 82% 29.80 in 3.0 mi North - - N/A   Haze
3:15 AM 44.6 °F 43.1 °F 39.2 °F 81% 29.76 in 2.0 mi North 3.5 mph - N/A   Haze
3:24 AM 44.6 °F 42.2 °F 39.2 °F 81% 29.79 in 1.2 mi NW 4.6 mph - N/A   Haze
3:52 AM 44.6 °F 41.4 °F 39.2 °F 81% 29.80 in 3.0 mi WNW 5.8 mph - 0.00 in Rain Light Rain
3:54 AM 45.0 °F 43.5 °F 39.9 °F 82% 29.80 in 4.0 mi NW 3.5 mph - 0.00 in Rain Light Rain
4:16 AM 44.6 °F 43.1 °F 41.0 °F 87% 29.79 in 1.8 mi Variable 3.5 mph - 0.00 in Rain Light Rain
4:54 AM 45.0 °F 41.8 °F 41.0 °F 86% 29.81 in 2.0 mi WNW 5.8 mph - 0.00 in   Overcast
5:10 AM 44.6 °F 43.1 °F 41.0 °F 87% 29.80 in 1.8 mi NNW 3.5 mph - N/A   Overcast
5:19 AM 44.6 °F 42.2 °F 41.0 °F 87% 29.80 in 2.0 mi NW 4.6 mph - N/A   Overcast
5:34 AM 46.4 °F 42.9 °F 41.0 °F 81% 29.81 in 4.0 mi NNW 6.9 mph - N/A   Haze
5:54 AM 46.0 °F 44.8 °F 41.0 °F 83% 29.83 in 5.0 mi WNW 3.5 mph - N/A   Haze
6:12 AM 46.4 °F 44.3 °F 41.0 °F 81% 29.84 in 6.0 mi WNW 4.6 mph - N/A   Haze
6:54 AM 46.0 °F 43.9 °F 41.0 °F 83% 29.82 in 8.0 mi North 4.6 mph - 0.00 in   Overcast
7:54 AM 46.0 °F 41.9 °F 41.0 °F 83% 29.86 in 6.0 mi North 8.1 mph - N/A   Haze
8:54 AM 46.9 °F - 42.1 °F 83% 29.87 in 4.0 mi NNE 3.5 mph - N/A   Haze
9:54 AM 48.0 °F - 42.1 °F 80% 29.90 in 10.0 mi NW 10.4 mph - N/A   Overcast
10:54 AM 52.0 °F - 43.0 °F 71% 29.91 in 10.0 mi NNW 11.5 mph - N/A   Mostly Cloudy
11:12 AM 53.6 °F - 42.8 °F 67% 29.90 in 10.0 mi NNW 6.9 mph - N/A   Scattered Clouds
11:23 AM 53.6 °F - 41.0 °F 62% 29.90 in 10.0 mi NW 8.1 mph - N/A   Mostly Cloudy
11:51 AM 53.6 °F - 39.2 °F 58% 29.89 in 10.0 mi NW 9.2 mph - N/A   Mostly Cloudy
11:54 AM 55.0 °F - 39.9 °F 57% 29.89 in 10.0 mi North 6.9 mph - N/A   Mostly Cloudy
12:31 PM 53.6 °F - 39.2 °F 58% 29.88 in 10.0 mi WNW 5.8 mph - N/A   Scattered Clouds
12:54 PM 55.0 °F - 39.0 °F 55% 29.87 in 10.0 mi Variable 4.6 mph - N/A   Scattered Clouds
1:54 PM 57.0 °F - 39.0 °F 51% 29.86 in 10.0 mi WNW 9.2 mph 18.4 mph N/A   Scattered Clouds
2:54 PM 57.0 °F - 37.9 °F 49% 29.86 in 10.0 mi WNW 11.5 mph - N/A   Clear
3:54 PM 57.0 °F - 37.0 °F 47% 29.87 in 10.0 mi West 10.4 mph - N/A   Clear
4:54 PM 55.9 °F - 37.0 °F 49% 29.88 in 10.0 mi West 8.1 mph - N/A   Clear
5:54 PM 53.1 °F - 35.1 °F 50% 29.90 in 10.0 mi West 5.8 mph - N/A   Clear
6:54 PM 48.0 °F - 35.1 °F 61% 29.93 in 10.0 mi WSW 4.6 mph - N/A   Clear
7:54 PM 44.1 °F - 37.0 °F 76% 29.96 in 10.0 mi North - - N/A   Clear
8:54 PM 46.9 °F - 30.9 °F 54% 30.01 in 10.0 mi NNE 16.1 mph 27.6 mph N/A   Overcast
9:54 PM 44.1 °F 38.6 °F 30.0 °F 58% 30.06 in 10.0 mi NNE 10.4 mph 17.3 mph N/A   Mostly Cloudy
10:54 PM 42.1 °F 36.1 °F 23.0 °F 47% 30.07 in 10.0 mi North 10.4 mph 16.1 mph N/A   Scattered Clouds
11:54 PM 39.0 °F 32.3 °F 19.9 °F 46% 30.09 in 10.0 mi NNE 10.4 mph - N/A   Partly Cloudy